Year,Month,Day,Hour,Minute,Value (Times are PST for temperature in C)
2017,12,03,00,00,4.50
2017,12,03,00,01,4.50
2017,12,03,00,02,4.50
2017,12,03,00,03,4.50
2017,12,03,00,04,4.50
2017,12,03,00,05,4.50
2017,12,03,00,06,4.50
2017,12,03,00,07,4.50
2017,12,03,00,08,4.50
2017,12,03,00,09,4.50
2017,12,03,00,10,4.50
2017,12,03,00,11,4.40
2017,12,03,00,12,4.40
2017,12,03,00,13,4.40
2017,12,03,00,14,4.40
2017,12,03,00,15,4.40
2017,12,03,00,16,4.40
2017,12,03,00,17,4.40
2017,12,03,00,18,4.40
2017,12,03,00,19,4.40
2017,12,03,00,20,4.40
2017,12,03,00,21,4.30
2017,12,03,00,22,4.30
2017,12,03,00,23,4.30
2017,12,03,00,24,4.30
2017,12,03,00,25,4.30
2017,12,03,00,26,4.30
2017,12,03,00,27,4.30
2017,12,03,00,28,4.30
2017,12,03,00,29,4.30
2017,12,03,00,30,4.30
2017,12,03,00,31,4.30
2017,12,03,00,32,4.30
2017,12,03,00,33,4.30
2017,12,03,00,34,4.30
2017,12,03,00,35,4.30
2017,12,03,00,36,4.30
2017,12,03,00,37,4.30
2017,12,03,00,38,4.30
2017,12,03,00,39,4.30
2017,12,03,00,40,4.30
2017,12,03,00,41,4.20
2017,12,03,00,42,4.20
2017,12,03,00,43,4.20
2017,12,03,00,44,4.20
2017,12,03,00,45,4.20
2017,12,03,00,46,4.20
2017,12,03,00,47,4.20
2017,12,03,00,48,4.20
2017,12,03,00,49,4.20
2017,12,03,00,50,4.20
2017,12,03,00,51,4.20
2017,12,03,00,52,4.20
2017,12,03,00,53,4.20
2017,12,03,00,54,4.20
2017,12,03,00,55,4.20
2017,12,03,00,56,4.20
2017,12,03,00,57,4.20
2017,12,03,00,58,4.20
2017,12,03,00,59,4.20
2017,12,03,01,00,4.10
2017,12,03,01,01,4.10
2017,12,03,01,02,4.10
2017,12,03,01,03,4.10
2017,12,03,01,04,4.10
2017,12,03,01,05,4.10
2017,12,03,01,06,4.10
2017,12,03,01,07,4.10
2017,12,03,01,08,4.10
2017,12,03,01,09,4.10
2017,12,03,01,10,4.10
2017,12,03,01,11,4.10
2017,12,03,01,12,4.10
2017,12,03,01,13,4.10
2017,12,03,01,14,4.10
2017,12,03,01,15,4.10
2017,12,03,01,16,4.10
2017,12,03,01,17,4.10
2017,12,03,01,18,4.10
2017,12,03,01,19,4.10
2017,12,03,01,20,4.10
2017,12,03,01,21,4.00
2017,12,03,01,22,4.00
2017,12,03,01,23,4.00
2017,12,03,01,24,4.10
2017,12,03,01,25,4.10
2017,12,03,01,26,4.10
2017,12,03,01,27,4.10
2017,12,03,01,28,4.10
2017,12,03,01,29,4.10
2017,12,03,01,30,4.10
2017,12,03,01,31,4.10
2017,12,03,01,32,4.10
2017,12,03,01,33,4.10
2017,12,03,01,34,4.10
2017,12,03,01,35,4.10
2017,12,03,01,36,4.10
2017,12,03,01,37,4.10
2017,12,03,01,38,4.10
2017,12,03,01,39,4.10
2017,12,03,01,40,4.10
2017,12,03,01,41,4.10
2017,12,03,01,42,4.10
2017,12,03,01,43,4.10
2017,12,03,01,44,4.10
2017,12,03,01,45,4.10
2017,12,03,01,46,4.10
2017,12,03,01,47,4.10
2017,12,03,01,48,4.10
2017,12,03,01,49,4.10
2017,12,03,01,50,4.10
2017,12,03,01,51,4.10
2017,12,03,01,52,4.10
2017,12,03,01,53,4.10
2017,12,03,01,54,4.10
2017,12,03,01,55,4.10
2017,12,03,01,56,4.10
2017,12,03,01,57,4.00
2017,12,03,01,58,4.00
2017,12,03,01,59,4.00
2017,12,03,02,00,4.00
2017,12,03,02,01,4.00
2017,12,03,02,02,4.00
2017,12,03,02,03,4.00
2017,12,03,02,04,4.00
2017,12,03,02,05,4.00
2017,12,03,02,06,4.00
2017,12,03,02,07,4.00
2017,12,03,02,08,4.00
2017,12,03,02,09,4.00
2017,12,03,02,10,4.00
2017,12,03,02,11,4.00
2017,12,03,02,12,4.00
2017,12,03,02,13,4.00
2017,12,03,02,14,4.00
2017,12,03,02,15,4.00
2017,12,03,02,16,4.00
2017,12,03,02,17,4.00
2017,12,03,02,18,4.00
2017,12,03,02,19,4.00
2017,12,03,02,20,4.00
2017,12,03,02,21,4.00
2017,12,03,02,22,4.00
2017,12,03,02,23,4.00
2017,12,03,02,24,4.00
2017,12,03,02,25,4.00
2017,12,03,02,26,4.00
2017,12,03,02,27,4.00
2017,12,03,02,28,4.00
2017,12,03,02,29,4.00
2017,12,03,02,30,4.00
2017,12,03,02,31,4.00
2017,12,03,02,32,4.00
2017,12,03,02,33,3.90
2017,12,03,02,34,3.90
2017,12,03,02,35,3.90
2017,12,03,02,36,3.90
2017,12,03,02,37,3.90
2017,12,03,02,38,3.90
2017,12,03,02,39,3.90
2017,12,03,02,40,3.90
2017,12,03,02,41,3.90
2017,12,03,02,42,3.90
2017,12,03,02,43,3.90
2017,12,03,02,44,3.90
2017,12,03,02,45,3.90
2017,12,03,02,46,3.90
2017,12,03,02,47,3.90
2017,12,03,02,48,3.90
2017,12,03,02,49,3.90
2017,12,03,02,50,3.90
2017,12,03,02,51,3.90
2017,12,03,02,52,3.90
2017,12,03,02,53,3.90
2017,12,03,02,54,3.80
2017,12,03,02,55,3.80
2017,12,03,02,56,3.80
2017,12,03,02,57,3.80
2017,12,03,02,58,3.80
2017,12,03,02,59,3.80
2017,12,03,03,00,3.80
2017,12,03,03,01,3.80
2017,12,03,03,02,3.80
2017,12,03,03,03,3.80
2017,12,03,03,04,3.80
2017,12,03,03,05,3.80
2017,12,03,03,06,3.80
2017,12,03,03,07,3.80
2017,12,03,03,08,3.80
2017,12,03,03,09,3.80
2017,12,03,03,10,3.80
2017,12,03,03,11,3.80
2017,12,03,03,12,3.80
2017,12,03,03,13,3.80
2017,12,03,03,14,3.80
2017,12,03,03,15,3.80
2017,12,03,03,16,3.80
2017,12,03,03,17,3.80
2017,12,03,03,18,3.80
2017,12,03,03,19,3.80
2017,12,03,03,20,3.80
2017,12,03,03,21,3.80
2017,12,03,03,22,3.80
2017,12,03,03,23,3.70
2017,12,03,03,24,3.70
2017,12,03,03,25,3.70
2017,12,03,03,26,3.70
2017,12,03,03,27,3.70
2017,12,03,03,28,3.70
2017,12,03,03,29,3.70
2017,12,03,03,30,3.70
2017,12,03,03,31,3.70
2017,12,03,03,32,3.70
2017,12,03,03,33,3.70
2017,12,03,03,34,3.70
2017,12,03,03,35,3.70
2017,12,03,03,36,3.70
2017,12,03,03,37,3.70
2017,12,03,03,38,3.70
2017,12,03,03,39,3.70
2017,12,03,03,40,3.60
2017,12,03,03,41,3.60
2017,12,03,03,42,3.60
2017,12,03,03,43,3.60
2017,12,03,03,44,3.60
2017,12,03,03,45,3.60
2017,12,03,03,46,3.60
2017,12,03,03,47,3.60
2017,12,03,03,48,3.60
2017,12,03,03,49,3.50
2017,12,03,03,50,3.50
2017,12,03,03,51,3.50
2017,12,03,03,52,3.50
2017,12,03,03,53,3.50
2017,12,03,03,54,3.50
2017,12,03,03,55,3.40
2017,12,03,03,56,3.40
2017,12,03,03,57,3.40
2017,12,03,03,58,3.40
2017,12,03,03,59,3.40
2017,12,03,04,00,3.40
2017,12,03,04,01,3.40
2017,12,03,04,02,3.40
2017,12,03,04,03,3.30
2017,12,03,04,04,3.30
2017,12,03,04,05,3.30
2017,12,03,04,06,3.30
2017,12,03,04,07,3.30
2017,12,03,04,08,3.30
2017,12,03,04,09,3.30
2017,12,03,04,10,3.30
2017,12,03,04,11,3.30
2017,12,03,04,12,3.20
2017,12,03,04,13,3.20
2017,12,03,04,14,3.20
2017,12,03,04,15,3.20
2017,12,03,04,16,3.20
2017,12,03,04,17,3.20
2017,12,03,04,18,3.20
2017,12,03,04,19,3.20
2017,12,03,04,20,3.20
2017,12,03,04,21,3.20
2017,12,03,04,22,3.20
2017,12,03,04,23,3.20
2017,12,03,04,24,3.10
2017,12,03,04,25,3.10
2017,12,03,04,26,3.10
2017,12,03,04,27,3.10
2017,12,03,04,28,3.10
2017,12,03,04,29,3.10
2017,12,03,04,30,3.10
2017,12,03,04,31,3.10
2017,12,03,04,32,3.10
2017,12,03,04,33,3.00
2017,12,03,04,34,2.90
2017,12,03,04,35,2.90
2017,12,03,04,36,2.90
2017,12,03,04,37,2.90
2017,12,03,04,38,2.90
2017,12,03,04,39,2.90
2017,12,03,04,40,2.90
2017,12,03,04,41,2.90
2017,12,03,04,42,2.90
2017,12,03,04,43,2.90
2017,12,03,04,44,2.90
2017,12,03,04,45,2.90
2017,12,03,04,46,2.90
2017,12,03,04,47,2.90
2017,12,03,04,48,2.90
2017,12,03,04,49,2.90
2017,12,03,04,50,2.90
2017,12,03,04,51,2.90
2017,12,03,04,52,2.90
2017,12,03,04,53,2.90
2017,12,03,04,54,2.90
2017,12,03,04,55,2.90
2017,12,03,04,56,2.90
2017,12,03,04,57,2.90
2017,12,03,04,58,2.90
2017,12,03,04,59,2.90
2017,12,03,05,00,2.90
2017,12,03,05,01,2.80
2017,12,03,05,02,2.90
2017,12,03,05,03,2.90
2017,12,03,05,04,2.90
2017,12,03,05,05,2.90
2017,12,03,05,06,2.90
2017,12,03,05,07,2.90
2017,12,03,05,08,2.90
2017,12,03,05,09,2.90
2017,12,03,05,10,2.90
2017,12,03,05,11,2.90
2017,12,03,05,12,2.90
2017,12,03,05,13,2.90
2017,12,03,05,14,2.90
2017,12,03,05,15,2.90
2017,12,03,05,16,2.90
2017,12,03,05,17,2.90
2017,12,03,05,18,2.90
2017,12,03,05,19,2.90
2017,12,03,05,20,2.90
2017,12,03,05,21,2.90
2017,12,03,05,22,2.90
2017,12,03,05,23,2.90
2017,12,03,05,24,2.90
2017,12,03,05,25,2.90
2017,12,03,05,26,2.90
2017,12,03,05,27,3.10
2017,12,03,05,28,3.10
2017,12,03,05,29,3.10
2017,12,03,05,30,3.10
2017,12,03,05,31,3.10
2017,12,03,05,32,3.10
2017,12,03,05,33,3.10
2017,12,03,05,34,3.10
2017,12,03,05,35,3.10
2017,12,03,05,36,3.10
2017,12,03,05,37,3.10
2017,12,03,05,38,3.10
2017,12,03,05,39,3.10
2017,12,03,05,40,3.10
2017,12,03,05,41,3.10
2017,12,03,05,42,3.10
2017,12,03,05,43,3.10
2017,12,03,05,44,3.10
2017,12,03,05,45,3.10
2017,12,03,05,46,3.10
2017,12,03,05,47,3.10
2017,12,03,05,48,3.10
2017,12,03,05,49,3.10
2017,12,03,05,50,3.10
2017,12,03,05,51,3.10
2017,12,03,05,52,3.10
2017,12,03,05,53,3.10
2017,12,03,05,54,3.10
2017,12,03,05,55,3.10
2017,12,03,05,56,3.20
2017,12,03,05,57,3.20
2017,12,03,05,58,3.20
2017,12,03,05,59,3.10
2017,12,03,06,00,3.10
2017,12,03,06,01,3.10
2017,12,03,06,02,3.10
2017,12,03,06,03,3.10
2017,12,03,06,04,3.10
2017,12,03,06,05,3.10
2017,12,03,06,06,3.10
2017,12,03,06,07,3.10
2017,12,03,06,08,3.10
2017,12,03,06,09,3.10
2017,12,03,06,10,3.10
2017,12,03,06,11,3.10
2017,12,03,06,12,3.10
2017,12,03,06,13,3.10
2017,12,03,06,14,3.10
2017,12,03,06,15,3.10
2017,12,03,06,16,3.10
2017,12,03,06,17,3.10
2017,12,03,06,18,3.10
2017,12,03,06,19,3.10
2017,12,03,06,20,3.10
2017,12,03,06,21,3.10
2017,12,03,06,22,3.10
2017,12,03,06,23,3.10
2017,12,03,06,24,3.00
2017,12,03,06,25,3.00
2017,12,03,06,26,2.90
2017,12,03,06,27,2.90
2017,12,03,06,28,2.90
2017,12,03,06,29,2.90
2017,12,03,06,30,2.90
2017,12,03,06,31,3.00
2017,12,03,06,32,3.10
2017,12,03,06,33,3.10
2017,12,03,06,34,3.10
2017,12,03,06,35,3.10
2017,12,03,06,36,3.10
2017,12,03,06,37,3.10
2017,12,03,06,38,3.10
2017,12,03,06,39,3.10
2017,12,03,06,40,3.10
2017,12,03,06,41,3.10
2017,12,03,06,42,3.10
2017,12,03,06,43,3.10
2017,12,03,06,44,3.10
2017,12,03,06,45,3.10
2017,12,03,06,46,3.10
2017,12,03,06,47,3.10
2017,12,03,06,48,3.10
2017,12,03,06,49,3.10
2017,12,03,06,50,3.10
2017,12,03,06,51,3.10
2017,12,03,06,52,3.10
2017,12,03,06,53,3.10
2017,12,03,06,54,3.10
2017,12,03,06,55,3.10
2017,12,03,06,56,3.10
2017,12,03,06,57,3.10
2017,12,03,06,58,3.10
2017,12,03,06,59,3.00
2017,12,03,07,00,2.90
2017,12,03,07,01,2.90
2017,12,03,07,02,2.90
2017,12,03,07,03,2.90
2017,12,03,07,04,2.90
2017,12,03,07,05,2.90
2017,12,03,07,06,2.90
2017,12,03,07,07,2.80
2017,12,03,07,08,2.80
2017,12,03,07,09,2.80
2017,12,03,07,10,2.80
2017,12,03,07,11,2.80
2017,12,03,07,12,2.70
2017,12,03,07,13,2.70
2017,12,03,07,14,2.70
2017,12,03,07,15,2.70
2017,12,03,07,16,2.70
2017,12,03,07,17,2.60
2017,12,03,07,18,2.60
2017,12,03,07,19,2.50
2017,12,03,07,20,2.50
2017,12,03,07,21,2.50
2017,12,03,07,22,2.50
2017,12,03,07,23,2.50
2017,12,03,07,24,2.50
2017,12,03,07,25,2.40
2017,12,03,07,26,2.40
2017,12,03,07,27,2.40
2017,12,03,07,28,2.40
2017,12,03,07,29,2.40
2017,12,03,07,30,2.40
2017,12,03,07,31,2.40
2017,12,03,07,32,2.40
2017,12,03,07,33,2.40
2017,12,03,07,34,2.40
2017,12,03,07,35,2.40
2017,12,03,07,36,2.40
2017,12,03,07,37,2.40
2017,12,03,07,38,2.40
2017,12,03,07,39,2.40
2017,12,03,07,40,2.40
2017,12,03,07,41,2.40
2017,12,03,07,42,2.40
2017,12,03,07,43,2.40
2017,12,03,07,44,2.40
2017,12,03,07,45,2.50
2017,12,03,07,46,2.50
2017,12,03,07,47,2.50
2017,12,03,07,48,2.50
2017,12,03,07,49,2.50
2017,12,03,07,50,2.50
2017,12,03,07,51,2.50
2017,12,03,07,52,2.50
2017,12,03,07,53,2.50
2017,12,03,07,54,2.50
2017,12,03,07,55,2.50
2017,12,03,07,56,2.60
2017,12,03,07,57,2.60
2017,12,03,07,58,2.60
2017,12,03,07,59,2.60
2017,12,03,08,00,2.60
2017,12,03,08,01,2.60
2017,12,03,08,02,2.60
2017,12,03,08,03,2.60
2017,12,03,08,04,2.60
2017,12,03,08,05,2.60
2017,12,03,08,06,2.60
2017,12,03,08,07,2.60
2017,12,03,08,08,2.60
2017,12,03,08,09,2.60
2017,12,03,08,10,2.60
2017,12,03,08,11,2.70
2017,12,03,08,12,2.70
2017,12,03,08,13,2.70
2017,12,03,08,14,2.70
2017,12,03,08,15,2.70
2017,12,03,08,16,2.70
2017,12,03,08,17,2.70
2017,12,03,08,18,2.70
2017,12,03,08,19,2.70
2017,12,03,08,20,2.70
2017,12,03,08,21,2.70
2017,12,03,08,22,2.70
2017,12,03,08,23,2.70
2017,12,03,08,24,2.70
2017,12,03,08,25,2.70
2017,12,03,08,26,2.70
2017,12,03,08,27,2.70
2017,12,03,08,28,2.70
2017,12,03,11,00,4.60
2017,12,03,11,01,4.70
2017,12,03,11,02,4.70
2017,12,03,11,03,4.70
2017,12,03,11,04,4.70
2017,12,03,11,05,4.80
2017,12,03,11,06,4.80
2017,12,03,11,07,4.80
2017,12,03,11,08,4.80
2017,12,03,11,09,4.80
2017,12,03,11,10,4.90
2017,12,03,11,11,4.90
2017,12,03,11,12,4.90
2017,12,03,11,13,4.90
2017,12,03,11,14,4.90
2017,12,03,11,15,4.90
2017,12,03,11,16,5.00
2017,12,03,11,17,5.10
2017,12,03,11,18,5.10
2017,12,03,11,19,5.10
2017,12,03,11,20,5.10
2017,12,03,11,21,5.10
2017,12,03,11,22,5.10
2017,12,03,11,23,5.10
2017,12,03,11,24,5.10
2017,12,03,11,25,5.10
2017,12,03,11,26,5.10
2017,12,03,11,27,5.20
2017,12,03,11,28,5.10
2017,12,03,11,29,5.10
2017,12,03,11,30,5.10
2017,12,03,11,31,5.10
2017,12,03,11,32,5.10
2017,12,03,11,33,5.10
2017,12,03,11,34,5.10
2017,12,03,11,35,5.20
2017,12,03,11,36,5.20
2017,12,03,11,37,5.20
2017,12,03,11,38,5.20
2017,12,03,11,39,5.20
2017,12,03,11,40,5.30
2017,12,03,11,41,5.30
2017,12,03,11,42,5.30
2017,12,03,11,43,5.30
2017,12,03,11,44,5.40
2017,12,03,11,45,5.40
2017,12,03,11,46,5.40
2017,12,03,11,47,5.40
2017,12,03,11,48,5.50
2017,12,03,11,49,5.50
2017,12,03,11,50,5.50
2017,12,03,11,51,5.50
2017,12,03,11,52,5.50
2017,12,03,11,53,5.60
2017,12,03,11,54,5.60
2017,12,03,11,55,5.60
2017,12,03,11,56,5.60
2017,12,03,11,57,5.70
2017,12,03,11,58,5.70
2017,12,03,11,59,5.70
2017,12,03,12,00,5.70
2017,12,03,12,01,5.70
2017,12,03,12,02,5.70
2017,12,03,12,03,5.70
2017,12,03,12,04,5.70
2017,12,03,12,05,5.70
2017,12,03,12,06,5.80
2017,12,03,12,07,5.80
2017,12,03,12,08,5.80
2017,12,03,12,09,5.80
2017,12,03,12,10,5.90
2017,12,03,12,11,5.90
2017,12,03,12,12,5.90
2017,12,03,12,13,6.00
2017,12,03,12,14,6.00
2017,12,03,12,15,6.00
2017,12,03,12,16,6.00
2017,12,03,12,17,6.00
2017,12,03,12,18,6.00
2017,12,03,12,19,6.00
2017,12,03,12,20,6.00
2017,12,03,12,21,6.00
2017,12,03,12,22,6.00
2017,12,03,12,23,6.00
2017,12,03,12,24,6.10
2017,12,03,12,25,6.00
2017,12,03,12,26,6.00
2017,12,03,12,27,6.00
2017,12,03,12,28,6.00
2017,12,03,12,29,6.00
2017,12,03,12,30,6.00
2017,12,03,12,31,6.00
2017,12,03,12,32,5.90
2017,12,03,12,33,5.90
2017,12,03,12,34,5.90
2017,12,03,12,35,5.90
2017,12,03,12,36,5.90
2017,12,03,12,37,5.90
2017,12,03,12,38,5.80
2017,12,03,12,39,5.80
2017,12,03,12,40,5.80
2017,12,03,12,41,5.80
2017,12,03,12,42,5.80
2017,12,03,12,43,5.80
2017,12,03,12,44,5.80
2017,12,03,12,45,5.80
2017,12,03,12,46,5.80
2017,12,03,12,47,5.80
2017,12,03,12,48,5.80
2017,12,03,12,49,5.80
2017,12,03,12,50,5.80
2017,12,03,12,51,5.70
2017,12,03,12,52,5.70
2017,12,03,12,53,5.70
2017,12,03,12,54,5.70
2017,12,03,12,55,5.70
2017,12,03,12,56,5.70
2017,12,03,12,57,5.70
2017,12,03,12,58,5.70
2017,12,03,12,59,5.70
2017,12,03,13,00,5.70
2017,12,03,13,01,5.70
2017,12,03,13,02,5.70
2017,12,03,13,03,5.70
2017,12,03,13,04,5.70
2017,12,03,13,05,5.70
2017,12,03,13,06,5.70
2017,12,03,13,07,5.70
2017,12,03,13,08,5.70
2017,12,03,13,09,5.70
2017,12,03,13,10,5.70
2017,12,03,13,11,5.70
2017,12,03,13,12,5.70
2017,12,03,13,13,5.70
2017,12,03,13,14,5.70
2017,12,03,13,15,5.70
2017,12,03,13,16,5.70
2017,12,03,13,17,5.70
2017,12,03,13,18,5.70
2017,12,03,13,19,5.70
2017,12,03,13,20,5.80
2017,12,03,13,21,5.80
2017,12,03,13,22,5.80
2017,12,03,13,23,5.80
2017,12,03,13,24,5.80
2017,12,03,13,25,5.90
2017,12,03,13,26,5.90
2017,12,03,13,27,5.90
2017,12,03,13,28,5.90
2017,12,03,13,29,5.90
2017,12,03,13,30,5.90
2017,12,03,13,31,5.80
2017,12,03,13,32,5.80
2017,12,03,13,33,5.90
2017,12,03,13,34,5.90
2017,12,03,13,35,5.90
2017,12,03,13,36,5.80
2017,12,03,13,37,5.80
2017,12,03,13,38,5.80
2017,12,03,13,39,5.80
2017,12,03,13,40,5.80
2017,12,03,13,41,5.80
2017,12,03,13,42,5.80
2017,12,03,13,43,5.80
2017,12,03,13,44,5.90
2017,12,03,13,45,5.90
2017,12,03,13,46,5.90
2017,12,03,13,47,5.90
2017,12,03,13,48,5.90
2017,12,03,13,49,6.00
2017,12,03,13,50,6.00
2017,12,03,13,51,6.00
2017,12,03,13,52,6.00
2017,12,03,13,53,6.00
2017,12,03,13,54,6.00
2017,12,03,13,55,6.00
2017,12,03,13,56,6.00
2017,12,03,13,57,6.00
2017,12,03,13,58,6.00
2017,12,03,13,59,6.10
2017,12,03,14,00,6.10
2017,12,03,14,01,6.10
2017,12,03,14,02,6.20
2017,12,03,14,03,6.20
2017,12,03,14,04,6.20
2017,12,03,14,05,6.20
2017,12,03,14,06,6.20
2017,12,03,14,07,6.20
2017,12,03,14,08,6.20
2017,12,03,14,09,6.20
2017,12,03,14,10,6.20
2017,12,03,14,11,6.20
2017,12,03,14,12,6.20
2017,12,03,14,13,6.20
2017,12,03,14,14,6.20
2017,12,03,14,15,6.20
2017,12,03,14,16,6.20
2017,12,03,14,17,6.20
2017,12,03,14,18,6.20
2017,12,03,14,19,6.20
2017,12,03,14,20,6.20
2017,12,03,14,21,6.20
2017,12,03,14,22,6.20
2017,12,03,14,23,6.20
2017,12,03,14,24,6.20
2017,12,03,14,25,6.20
2017,12,03,14,26,6.20
2017,12,03,14,27,6.20
2017,12,03,14,28,6.20
2017,12,03,14,29,6.10
2017,12,03,14,30,6.10
2017,12,03,14,31,6.10
2017,12,03,14,32,6.00
2017,12,03,14,33,6.00
2017,12,03,14,34,6.00
2017,12,03,14,35,6.00
2017,12,03,14,36,6.00
2017,12,03,14,37,6.00
2017,12,03,14,38,6.00
2017,12,03,14,39,6.00
2017,12,03,14,40,6.00
2017,12,03,14,41,6.00
2017,12,03,14,42,6.00
2017,12,03,14,43,6.00
2017,12,03,14,44,6.00
2017,12,03,14,45,6.00
2017,12,03,14,46,6.00
2017,12,03,14,47,6.00
2017,12,03,14,48,6.00
2017,12,03,14,49,6.00
2017,12,03,14,50,6.00
2017,12,03,14,51,6.00
2017,12,03,14,52,6.00
2017,12,03,14,53,6.00
2017,12,03,14,54,6.00
2017,12,03,14,55,6.00
2017,12,03,14,56,5.90
2017,12,03,14,57,5.90
2017,12,03,14,58,5.90
2017,12,03,14,59,5.90
2017,12,03,15,00,5.90
2017,12,03,15,01,5.80
2017,12,03,15,02,5.80
2017,12,03,15,03,5.80
2017,12,03,15,04,5.70
2017,12,03,15,05,5.70
2017,12,03,15,06,5.70
2017,12,03,15,07,5.70
2017,12,03,15,08,5.70
2017,12,03,15,09,5.70
2017,12,03,15,10,5.70
2017,12,03,15,11,5.70
2017,12,03,15,12,5.70
2017,12,03,15,13,5.60
2017,12,03,15,14,5.60
2017,12,03,15,15,5.60
2017,12,03,15,16,5.60
2017,12,03,15,17,5.60
2017,12,03,15,18,5.50
2017,12,03,15,19,5.50
2017,12,03,15,20,5.50
2017,12,03,15,21,5.50
2017,12,03,15,22,5.50
2017,12,03,15,23,5.50
2017,12,03,15,24,5.50
2017,12,03,15,25,5.50
2017,12,03,15,26,5.50
2017,12,03,15,27,5.40
2017,12,03,15,28,5.40
2017,12,03,15,29,5.40
2017,12,03,15,30,5.40
2017,12,03,15,31,5.40
2017,12,03,15,32,5.40
2017,12,03,15,33,5.40
2017,12,03,15,34,5.40
2017,12,03,15,35,5.30
2017,12,03,15,36,5.30
2017,12,03,15,37,5.30
2017,12,03,15,38,5.30
2017,12,03,15,39,5.30
2017,12,03,15,40,5.30
2017,12,03,15,41,5.30
2017,12,03,15,42,5.30
2017,12,03,15,43,5.30
2017,12,03,15,44,5.30
2017,12,03,15,45,5.30
2017,12,03,15,46,5.30
2017,12,03,15,47,5.20
2017,12,03,15,48,5.20
2017,12,03,15,49,5.20
2017,12,03,15,50,5.20
2017,12,03,15,51,5.20
2017,12,03,15,52,5.20
2017,12,03,15,53,5.20
2017,12,03,15,54,5.20
2017,12,03,15,55,5.10
2017,12,03,15,56,5.10
2017,12,03,15,57,5.10
2017,12,03,15,58,5.10
2017,12,03,15,59,5.10
2017,12,03,16,00,5.10
2017,12,03,16,01,5.10
2017,12,03,16,02,5.10
2017,12,03,16,03,5.10
2017,12,03,16,04,5.10
2017,12,03,16,05,5.10
2017,12,03,16,06,5.10
2017,12,03,16,07,5.10
2017,12,03,16,08,5.10
2017,12,03,16,09,5.00
2017,12,03,16,10,4.90
2017,12,03,16,11,4.90
2017,12,03,16,12,4.90
2017,12,03,16,13,4.90
2017,12,03,16,14,4.90
2017,12,03,16,15,4.90
2017,12,03,16,16,4.90
2017,12,03,16,17,4.90
2017,12,03,16,18,4.90
2017,12,03,16,19,4.90
2017,12,03,16,20,4.80
2017,12,03,16,21,4.80
2017,12,03,16,22,4.80
2017,12,03,16,23,4.80
2017,12,03,16,24,4.80
2017,12,03,16,25,4.70
2017,12,03,16,26,4.70
2017,12,03,16,27,4.70
2017,12,03,16,28,4.60
2017,12,03,16,29,4.60
2017,12,03,16,30,4.60
2017,12,03,16,31,4.60
2017,12,03,16,32,4.60
2017,12,03,16,33,4.50
2017,12,03,16,34,4.50
2017,12,03,16,35,4.50
2017,12,03,16,36,4.40
2017,12,03,16,37,4.40
2017,12,03,16,38,4.40
2017,12,03,16,39,4.30
2017,12,03,16,40,4.30
2017,12,03,16,41,4.20
2017,12,03,16,42,4.20
2017,12,03,16,43,4.20
2017,12,03,16,44,4.20
2017,12,03,16,45,4.20
2017,12,03,16,46,4.10
2017,12,03,16,47,4.10
2017,12,03,16,48,4.00
2017,12,03,16,49,4.00
2017,12,03,16,50,4.00
2017,12,03,16,51,3.90
2017,12,03,16,52,3.90
2017,12,03,16,53,3.90
2017,12,03,16,54,3.80
2017,12,03,16,55,3.80
2017,12,03,16,56,3.80
2017,12,03,16,57,3.80
2017,12,03,16,58,3.80
2017,12,03,16,59,3.70
2017,12,03,17,00,3.70
2017,12,03,17,01,3.70
2017,12,03,17,02,3.60
2017,12,03,17,03,3.60
2017,12,03,17,04,3.60
2017,12,03,17,05,3.60
2017,12,03,17,06,3.50
2017,12,03,17,07,3.50
2017,12,03,17,08,3.50
2017,12,03,17,09,3.50
2017,12,03,17,10,3.50
2017,12,03,17,11,3.40
2017,12,03,17,12,3.40
2017,12,03,17,13,3.40
2017,12,03,17,14,3.40
2017,12,03,17,15,3.40
2017,12,03,17,16,3.40
2017,12,03,17,17,3.30
2017,12,03,17,18,3.30
2017,12,03,17,19,3.30
2017,12,03,17,20,3.30
2017,12,03,17,21,3.30
2017,12,03,17,22,3.30
2017,12,03,17,23,3.30
2017,12,03,17,24,3.30
2017,12,03,17,25,3.30
2017,12,03,17,26,3.30
2017,12,03,17,27,3.30
2017,12,03,17,28,3.30
2017,12,03,17,29,3.30
2017,12,03,17,30,3.30
2017,12,03,17,31,3.30
2017,12,03,17,32,3.30
2017,12,03,17,33,3.30
2017,12,03,17,34,3.30
2017,12,03,17,35,3.30
2017,12,03,17,36,3.20
2017,12,03,17,37,3.20
2017,12,03,17,38,3.20
2017,12,03,17,39,3.20
2017,12,03,17,40,3.20
2017,12,03,17,41,3.20
2017,12,03,17,42,3.20
2017,12,03,17,43,3.20
2017,12,03,17,44,3.20
2017,12,03,17,45,3.20
2017,12,03,17,46,3.20
2017,12,03,17,47,3.20
2017,12,03,17,48,3.20
2017,12,03,17,49,3.20
2017,12,03,17,50,3.20
2017,12,03,17,51,3.20
2017,12,03,17,52,3.20
2017,12,03,17,53,3.20
2017,12,03,17,54,3.20
2017,12,03,17,55,3.20
2017,12,03,17,56,3.20
2017,12,03,17,57,3.20
2017,12,03,17,58,3.20
2017,12,03,17,59,3.20
2017,12,03,18,00,3.10
2017,12,03,18,01,3.10
2017,12,03,18,02,3.10
2017,12,03,18,03,3.10
2017,12,03,18,04,3.10
2017,12,03,18,05,3.10
2017,12,03,18,06,3.10
2017,12,03,18,07,3.10
2017,12,03,18,08,3.10
2017,12,03,18,09,3.10
2017,12,03,18,10,3.10
2017,12,03,18,11,3.10
2017,12,03,18,12,3.10
2017,12,03,18,13,3.20
2017,12,03,18,14,3.20
2017,12,03,18,15,3.20
2017,12,03,18,16,3.20
2017,12,03,18,17,3.20
2017,12,03,18,18,3.20
2017,12,03,18,19,3.20
2017,12,03,18,20,3.20
2017,12,03,18,21,3.20
2017,12,03,18,22,3.20
2017,12,03,18,23,3.20
2017,12,03,18,24,3.20
2017,12,03,18,25,3.20
2017,12,03,18,26,3.20
2017,12,03,18,27,3.20
2017,12,03,18,28,3.20
2017,12,03,18,29,3.20
2017,12,03,18,30,3.20
2017,12,03,18,31,3.20
2017,12,03,18,32,3.20
2017,12,03,18,33,3.20
2017,12,03,18,34,3.20
2017,12,03,18,35,3.20
2017,12,03,18,36,3.20
2017,12,03,18,37,3.20
2017,12,03,18,38,3.20
2017,12,03,18,39,3.20
2017,12,03,18,40,3.20
2017,12,03,18,41,3.20
2017,12,03,18,42,3.20
2017,12,03,18,43,3.20
2017,12,03,18,44,3.20
2017,12,03,18,45,3.10
2017,12,03,18,46,3.10
2017,12,03,18,47,3.10
2017,12,03,18,48,3.10
2017,12,03,18,49,3.10
2017,12,03,18,50,3.10
2017,12,03,18,51,3.10
2017,12,03,18,52,3.10
2017,12,03,18,53,3.20
2017,12,03,18,54,3.20
2017,12,03,18,55,3.20
2017,12,03,18,56,3.20
2017,12,03,18,57,3.20
2017,12,03,18,58,3.20
2017,12,03,18,59,3.20
2017,12,03,19,00,3.20
2017,12,03,19,01,3.20
2017,12,03,19,02,3.20
2017,12,03,19,03,3.20
2017,12,03,19,04,3.30
2017,12,03,19,05,3.30
2017,12,03,19,06,3.30
2017,12,03,19,07,3.30
2017,12,03,19,08,3.30
2017,12,03,19,09,3.30
2017,12,03,19,10,3.30
2017,12,03,19,11,3.30
2017,12,03,19,12,3.40
2017,12,03,19,13,3.40
2017,12,03,19,14,3.40
2017,12,03,19,15,3.40
2017,12,03,19,16,3.40
2017,12,03,19,17,3.40
2017,12,03,19,18,3.40
2017,12,03,19,19,3.40
2017,12,03,19,20,3.40
2017,12,03,19,21,3.40
2017,12,03,19,22,3.50
2017,12,03,19,23,3.50
2017,12,03,19,24,3.50
2017,12,03,19,25,3.50
2017,12,03,19,26,3.50
2017,12,03,19,27,3.50
2017,12,03,19,28,3.50
2017,12,03,19,29,3.50
2017,12,03,19,30,3.50
2017,12,03,19,31,3.50
2017,12,03,19,32,3.50
2017,12,03,19,33,3.50
2017,12,03,19,34,3.40
2017,12,03,19,35,3.40
2017,12,03,19,36,3.40
2017,12,03,19,37,3.40
2017,12,03,19,38,3.40
2017,12,03,19,39,3.40
2017,12,03,19,40,3.40
2017,12,03,19,41,3.40
2017,12,03,19,42,3.40
2017,12,03,19,43,3.40
2017,12,03,19,44,3.40
2017,12,03,19,45,3.30
2017,12,03,19,46,3.30
2017,12,03,19,47,3.30
2017,12,03,19,48,3.30
2017,12,03,19,49,3.30
2017,12,03,19,50,3.30
2017,12,03,19,51,3.30
2017,12,03,19,52,3.30
2017,12,03,19,53,3.30
2017,12,03,19,54,3.30
2017,12,03,19,55,3.30
2017,12,03,19,56,3.30
2017,12,03,19,57,3.30
2017,12,03,19,58,3.20
2017,12,03,19,59,3.20
2017,12,03,20,00,3.20
2017,12,03,20,01,3.20
2017,12,03,20,02,3.20
2017,12,03,20,03,3.20
2017,12,03,20,04,3.20
2017,12,03,20,05,3.10
2017,12,03,20,06,3.10
2017,12,03,20,07,3.10
2017,12,03,20,08,3.10
2017,12,03,20,09,3.10
2017,12,03,20,10,3.10
2017,12,03,20,11,3.10
2017,12,03,20,12,3.10
2017,12,03,20,13,3.10
2017,12,03,20,14,3.00
2017,12,03,20,15,2.90
2017,12,03,20,16,2.90
2017,12,03,20,17,2.90
2017,12,03,20,18,2.90
2017,12,03,20,19,2.90
2017,12,03,20,20,2.90
2017,12,03,20,21,2.90
2017,12,03,20,22,2.80
2017,12,03,20,23,2.80
2017,12,03,20,24,2.80
2017,12,03,20,25,2.80
2017,12,03,20,26,2.80
2017,12,03,20,27,2.80
2017,12,03,20,28,2.80
2017,12,03,20,29,2.80
2017,12,03,20,30,2.70
2017,12,03,20,31,2.70
2017,12,03,20,32,2.70
2017,12,03,20,33,2.70
2017,12,03,20,34,2.70
2017,12,03,20,35,2.70
2017,12,03,20,36,2.60
2017,12,03,20,37,2.60